Norfolk, NE

7:24 PM CDT on May 22, 2018 (GMT -0500)
Stefan Memorial

Weather History for KOFK - June, 2012

Change the Weather History Date:

Sunday, June 10, 2012

  Actual Average Record
Temperature  
Mean Temperature 69 °F 69 °F  
Max Temperature 81 °F 80 °F 109 °F (1933)
Min Temperature 56 °F 57 °F 36 °F (1928)
Degree Days  
Heating Degree Days 0 1  
Month to date heating degree days 12 19  
Since 1 June heating degree days 12 19  
Since 1 July heating degree days 5452 6632  
Cooling Degree Days 4 5  
Month to date cooling degree days 71 40  
Year to date cooling degree days 223 101  
Since 1 June cooling degree days 71 40  
Growing Degree Days 18 (Base 50)    
Moisture  
Dew Point 58 °F    
Average Humidity 65    
Maximum Humidity 83    
Minimum Humidity 46    
Precipitation  
Precipitation 0.00 in 0.14 in 1.34 in (2010)
Month to date precipitation 0.02 1.46  
Year to date precipitation 9.98 11.16  
Snow  
Snow 0.00 in 0.00 in - ()
Month to date snowfall 0.0 0.0  
Since 1 July snowfall 15.3 30.5  
Snow Depth 0.00 in    
Sea Level Pressure  
Sea Level Pressure 29.63 in    
Wind  
Wind Speed 14 mph (SW)    
Max Wind Speed 25 mph    
Max Gust Speed 35 mph    
Visibility 10 miles    
Events      
T = Trace of Precipitation, MM = Missing Value Source: NWS Daily Summary

Daily Weather History Graph

Daily Weather History Graph

Search for Another Location

Airport or City:

Astronomy

Jun. 10, 2012 Rise Set
Actual Time 5:53 AM CDT 9:04 PM CDT
Civil Twilight 5:19 AM CDT 9:39 PM CDT
Nautical Twilight 4:35 AM CDT 10:23 PM CDT
Astronomical Twilight 3:42 AM CDT 11:16 PM CDT
Moon 12:53 AM CDT (6/10) 12:49 PM CDT (6/10)
Length of Visible Light 16h 19m
Length of Day
15h 11m
Waning Gibbous, 58% of the Moon is Illuminated
Jun 10
Waning Gibbous
Jun 11
Last Quarter
Jun 19
New
Jun 26
First Quarter
Jul 3
Full

Hourly Weather History & Observations

Time (CDT) Temp. Heat Index Dew Point Humidity Pressure Visibility Wind Dir Wind Speed Gust Speed Precip Events Conditions
12:56 AM 78.1 °F - 60.1 °F 54% 29.54 in 10.0 mi SSE 20.7 mph 29.9 mph N/A   Clear
1:56 AM 77.0 °F - 61.0 °F 58% 29.52 in 10.0 mi SSE 23.0 mph 31.1 mph N/A   Clear
3:56 AM 75.0 °F - 62.1 °F 64% 29.52 in 10.0 mi South 18.4 mph 26.5 mph N/A   Clear
4:56 AM 75.0 °F - 62.1 °F 64% 29.52 in 10.0 mi SSE 18.4 mph 25.3 mph N/A   Clear
5:56 AM 73.9 °F - 62.1 °F 66% 29.52 in 10.0 mi SSE 19.6 mph 31.1 mph N/A   Clear
6:56 AM 75.0 °F - 63.0 °F 66% 29.53 in 8.0 mi South 19.6 mph 26.5 mph N/A   Clear
7:56 AM 75.9 °F - 63.0 °F 64% 29.54 in 9.0 mi South 19.6 mph 27.6 mph N/A   Clear
8:56 AM 77.0 °F - 63.0 °F 62% 29.57 in 10.0 mi South 13.8 mph 21.9 mph N/A   Mostly Cloudy
9:56 AM 79.0 °F - 64.0 °F 60% 29.57 in 10.0 mi South 12.7 mph 21.9 mph N/A   Overcast
10:56 AM 79.0 °F - 64.0 °F 60% 29.58 in 10.0 mi SSW 12.7 mph 20.7 mph N/A   Overcast
11:56 AM 80.1 °F 81.9 °F 64.9 °F 60% 29.59 in 10.0 mi South 17.3 mph - N/A   Overcast
12:49 PM 71.6 °F - 59.0 °F 64% 29.66 in 10.0 mi WNW 19.6 mph 33.4 mph N/A   Overcast
12:56 PM 70.0 °F - 57.9 °F 65% 29.63 in 10.0 mi WNW 21.9 mph 26.5 mph N/A   Overcast
1:03 PM 69.8 °F - 57.2 °F 64% 29.68 in 10.0 mi WNW 15.0 mph 25.3 mph N/A   Overcast
1:56 PM 70.0 °F - 57.0 °F 63% 29.67 in 10.0 mi NW 13.8 mph 21.9 mph N/A   Overcast
2:56 PM 71.1 °F - 57.0 °F 61% 29.67 in 10.0 mi WNW 17.3 mph 25.3 mph N/A   Mostly Cloudy
3:56 PM 71.1 °F - 55.9 °F 59% 29.70 in 10.0 mi NW 15.0 mph - N/A   Scattered Clouds
4:56 PM 71.1 °F - 55.0 °F 57% 29.71 in 10.0 mi NNW 15.0 mph - N/A   Mostly Cloudy
5:56 PM 75.0 °F - 54.0 °F 48% 29.70 in 10.0 mi NNW 15.0 mph - N/A   Clear
6:56 PM 73.9 °F - 52.0 °F 46% 29.70 in 10.0 mi NNW 11.5 mph - N/A   Clear
7:56 PM 73.0 °F - 51.1 °F 46% 29.71 in 10.0 mi NNW 8.1 mph - N/A   Clear
8:56 PM 69.1 °F - 51.1 °F 53% 29.71 in 10.0 mi NNW 3.5 mph - N/A   Clear
9:56 PM 60.1 °F - 51.1 °F 72% 29.75 in 10.0 mi ESE 3.5 mph - N/A   Clear
10:56 PM 55.9 °F - 50.0 °F 80% 29.78 in 10.0 mi SE 3.5 mph - N/A   Clear
11:56 PM 57.0 °F - 50.0 °F 77% 29.79 in 10.0 mi SE 4.6 mph - N/A   Clear